Weather History for Oxford, MS

Change the Weather History Date:

Tuesday, November 29, 2011

  Actual Average Record
Temperature  
Mean Temperature 34 °F -  
Max Temperature 37 °F 53 °F 76 °F (1949)
Min Temperature 32 °F 33 °F 14 °F (1976)
Degree Days  
Heating Degree Days 30    
Moisture  
Dew Point 32 °F    
Average Humidity 90    
Maximum Humidity 100    
Minimum Humidity 81    
Precipitation  
Precipitation 0.24 in - - ()
Sea Level Pressure  
Sea Level Pressure 29.95 in    
Wind  
Wind Speed 6 mph (NW)    
Max Wind Speed 12 mph    
Max Gust Speed 18 mph    
Visibility 8 miles    
Events Rain , Snow    
Averages and records for this station are not official NWS values.
T = Trace of Precipitation, MM = Missing Value Source: NWS Daily Summary

Daily Weather History Graph

Daily Weather History Graph

Search for Another Location

Airport:

Trip Planner

Search our weather history database for the weather conditions in past years. The results will help you decide how hot, cold, wet, or windy it might be!

Date:

Astronomy

Nov. 29, 2011 Rise Set
Actual Time 6:44 AM CST 4:48 PM CST
Civil Twilight 6:16 AM CST 5:15 PM CST
Nautical Twilight 5:45 AM CST 5:46 PM CST
Astronomical Twilight 5:15 AM CST 6:16 PM CST
Moon 10:35 AM CST (11/29) 9:36 PM CST (11/29)
Length of Visible Light 10h 58m
Length of Day
10h 04m
Waxing Crescent, 24% of the Moon is Illuminated
Nov 29
Waxing Crescent
Dec 2
First Quarter
Dec 10
Full
Dec 17
Last Quarter
Dec 24
New

Hourly Weather History & Observations

Time (CST) Temp. Windchill Dew Point Humidity Pressure Visibility Wind Dir Wind Speed Gust Speed Precip Events Conditions
12:15 AM 32.0 °F 27.5 °F 32.0 °F 100% 29.84 in 3.0 mi West 4.6 mph - 0.01 in Snow Light Snow
12:35 AM 32.0 °F 27.5 °F 30.2 °F 93% 29.84 in 1.0 mi West 4.6 mph - 0.19 in Snow Light Snow
12:55 AM 32.0 °F - 32.0 °F 100% 29.83 in 9.0 mi Calm Calm - 0.23 in   Overcast
1:15 AM 32.0 °F 27.5 °F 32.0 °F 100% 29.83 in 3.0 mi West 4.6 mph - N/A Snow Light Snow
1:35 AM 32.0 °F - 32.0 °F 100% 29.82 in 5.0 mi Calm Calm - 0.01 in Rain Light Rain
1:55 AM 32.0 °F 26.4 °F 32.0 °F 100% 29.83 in 5.0 mi West 5.8 mph - 0.01 in   Overcast
2:15 AM 32.0 °F 26.4 °F 32.0 °F 100% 29.83 in 10.0 mi WNW 5.8 mph - N/A   Overcast
2:35 AM 32.0 °F 26.4 °F 32.0 °F 100% 29.81 in 7.0 mi WNW 5.8 mph - N/A Rain Light Rain
2:55 AM 32.0 °F 24.2 °F 32.0 °F 100% 29.82 in 5.0 mi WNW 9.2 mph - N/A Rain Light Rain
3:15 AM 32.0 °F 25.6 °F 32.0 °F 100% 29.83 in 5.0 mi WNW 6.9 mph - N/A Rain Light Rain
3:35 AM 32.0 °F 25.6 °F 32.0 °F 100% 29.82 in 8.0 mi WNW 6.9 mph - N/A   Overcast
3:55 AM 32.0 °F 24.2 °F 32.0 °F 100% 29.83 in 9.0 mi WNW 9.2 mph - N/A   Overcast
4:15 AM 32.0 °F 24.8 °F 32.0 °F 100% 29.83 in 5.0 mi WNW 8.1 mph - N/A Rain Light Rain
4:35 AM 32.0 °F 24.2 °F 32.0 °F 100% 29.83 in 5.0 mi WNW 9.2 mph - N/A   Overcast
4:55 AM 32.0 °F 24.2 °F 32.0 °F 100% 29.82 in 7.0 mi WNW 9.2 mph - N/A   Overcast
5:15 AM 32.0 °F 23.6 °F 32.0 °F 100% 29.83 in 7.0 mi WNW 10.4 mph - N/A Rain Light Rain
5:35 AM 32.0 °F 24.2 °F 32.0 °F 100% 29.84 in 10.0 mi WNW 9.2 mph - N/A   Overcast
5:55 AM 32.0 °F 23.6 °F 32.0 °F 100% 29.84 in 10.0 mi NW 10.4 mph 18.4 mph N/A   Overcast
6:15 AM 32.0 °F 23.6 °F 32.0 °F 100% 29.85 in 10.0 mi NW 10.4 mph - N/A   Overcast
6:35 AM 33.8 °F 26.4 °F 32.0 °F 93% 29.85 in 10.0 mi NW 9.2 mph - N/A   Overcast
6:55 AM 33.8 °F 27.7 °F 32.0 °F 93% 29.87 in 10.0 mi WNW 6.9 mph - N/A   Overcast
7:15 AM 33.8 °F 26.4 °F 32.0 °F 93% 29.87 in 10.0 mi WNW 9.2 mph - N/A Rain Light Rain
7:35 AM 33.8 °F 25.8 °F 32.0 °F 93% 29.88 in 8.0 mi NW 10.4 mph - N/A Rain Light Rain
7:55 AM 33.8 °F 26.4 °F 32.0 °F 93% 29.90 in 9.0 mi NW 9.2 mph 17.3 mph N/A Rain Light Rain
8:15 AM 33.8 °F 26.4 °F 32.0 °F 93% 29.91 in 7.0 mi NW 9.2 mph 16.1 mph N/A   Overcast
8:35 AM 35.6 °F 28.6 °F 32.0 °F 87% 29.92 in 9.0 mi NW 9.2 mph 16.1 mph N/A   Overcast
8:55 AM 35.6 °F 28.6 °F 32.0 °F 87% 29.92 in 9.0 mi NNW 9.2 mph - N/A   Overcast
9:15 AM 35.6 °F 27.5 °F 32.0 °F 87% 29.94 in 9.0 mi NW 11.5 mph 17.3 mph N/A   Overcast
9:35 AM 35.6 °F 28.0 °F 32.0 °F 87% 29.93 in 9.0 mi NW 10.4 mph 16.1 mph N/A   Overcast
9:55 AM 35.6 °F 29.2 °F 32.0 °F 87% 29.94 in 9.0 mi NW 8.1 mph - N/A   Overcast
10:35 AM 37.4 °F 30.8 °F 32.0 °F 81% 29.97 in 9.0 mi NW 9.2 mph - N/A   Overcast
10:55 AM 37.4 °F 30.3 °F 32.0 °F 81% 29.97 in 9.0 mi NNW 10.4 mph - N/A   Overcast
11:15 AM 37.4 °F 31.4 °F 32.0 °F 81% 29.97 in 10.0 mi NNW 8.1 mph 17.3 mph N/A   Overcast
11:35 AM 37.4 °F 30.3 °F 32.0 °F 81% 29.97 in 10.0 mi NNW 10.4 mph 17.3 mph N/A   Overcast
11:55 AM 37.4 °F 30.3 °F 32.0 °F 81% 29.98 in 10.0 mi NNW 10.4 mph - N/A   Overcast
12:35 PM 37.4 °F 30.3 °F 32.0 °F 81% 29.99 in 10.0 mi NW 10.4 mph 16.1 mph N/A   Overcast
12:55 PM 37.4 °F 30.8 °F 32.0 °F 81% 29.99 in 10.0 mi NNW 9.2 mph - N/A   Overcast
1:55 PM 37.4 °F 33.8 °F 32.0 °F 81% 30.01 in 10.0 mi NNW 4.6 mph - N/A   Overcast
2:15 PM 37.4 °F 30.8 °F 32.0 °F 81% 30.01 in 10.0 mi NW 9.2 mph - N/A   Overcast
2:35 PM 37.4 °F 31.4 °F 32.0 °F 81% 30.02 in 10.0 mi NNW 8.1 mph - N/A   Overcast
2:55 PM 37.4 °F 32.8 °F 32.0 °F 81% 30.04 in 10.0 mi NNW 5.8 mph - N/A   Overcast
3:15 PM 37.4 °F 30.8 °F 32.0 °F 81% 30.04 in 10.0 mi NNW 9.2 mph - N/A   Overcast
3:35 PM 37.4 °F 32.1 °F 32.0 °F 81% 30.05 in 10.0 mi NNW 6.9 mph - N/A   Overcast
3:55 PM 37.4 °F 32.8 °F 32.0 °F 81% 30.06 in 10.0 mi NW 5.8 mph - N/A   Overcast
4:15 PM 37.4 °F 30.3 °F 32.0 °F 81% 30.07 in 9.0 mi NW 10.4 mph - N/A   Overcast
4:35 PM 37.4 °F 30.8 °F 32.0 °F 81% 30.08 in 9.0 mi NNW 9.2 mph - N/A   Overcast
4:55 PM 37.4 °F 32.8 °F 32.0 °F 81% 30.09 in 9.0 mi NNW 5.8 mph - N/A   Overcast
5:15 PM 37.4 °F - 32.0 °F 81% 30.10 in 10.0 mi Calm Calm - N/A   Overcast
5:35 PM 37.4 °F 32.1 °F 32.0 °F 81% 30.10 in 10.0 mi NNW 6.9 mph - N/A   Overcast
5:55 PM 37.4 °F 33.8 °F 32.0 °F 81% 30.11 in 10.0 mi NNW 4.6 mph - N/A   Overcast
6:15 PM 37.4 °F - 32.0 °F 81% 30.12 in 10.0 mi Calm Calm - N/A   Overcast
6:35 PM 37.4 °F - 32.0 °F 81% 30.13 in 10.0 mi Calm Calm - N/A   Overcast
6:55 PM 37.4 °F - 32.0 °F 81% 30.13 in 10.0 mi Calm Calm - N/A   Scattered Clouds
7:35 PM 33.8 °F - 32.0 °F 93% 30.13 in 9.0 mi Calm Calm - N/A   Clear
7:55 PM 32.0 °F - 32.0 °F 100% 30.14 in 7.0 mi Calm Calm - N/A   Clear
8:15 PM 32.0 °F - 30.2 °F 93% 30.14 in 3.0 mi Calm Calm - N/A   Clear
8:35 PM 32.0 °F - 30.2 °F 93% 30.15 in 3.0 mi Calm Calm - N/A   Clear
8:55 PM 30.2 °F - 28.4 °F 93% 30.16 in 5.0 mi Calm Calm - N/A   Clear
9:15 PM 28.4 °F - 28.4 °F 100% 30.16 in 4.0 mi Calm Calm - N/A   Clear
9:55 PM 28.4 °F - 28.4 °F 100% 30.15 in 5.0 mi Calm Calm - N/A   Clear
10:15 PM 28.4 °F - 26.6 °F 93% 30.15 in 4.0 mi Calm Calm - N/A   Clear
10:35 PM 28.4 °F - 26.6 °F 93% 30.16 in 5.0 mi Calm Calm - N/A   Clear
10:55 PM 28.4 °F - 28.4 °F 100% 30.17 in 3.0 mi Calm Calm - N/A   Clear
11:15 PM 28.4 °F - 26.6 °F 93% 30.16 in 4.0 mi Calm Calm - N/A   Clear
11:35 PM 28.4 °F - 26.6 °F 93% 30.16 in 4.0 mi Calm Calm - N/A   Clear
11:55 PM 28.4 °F - 28.4 °F 100% 30.15 in 4.0 mi Calm Calm - N/A   Clear